Regional Weather Roundup
Issued by NWS

Home | Current Version | Previous Version | Graphics & Text | Print | Product List | Glossary On
Versions: 1 2 3 4 5 6 7 8 9 10 11 12 13 14 15 16 17 18 19 20 21 22 23 24 25 26 27 28 29 30 31 32 33 34 35 36 37 38 39 40 41 42 43 44 45 46 47 48 49 50
000
ASUS45 KBOU 040007
RWRCO

WEATHER ROUNDUP FOR COLORADO
NATIONAL WEATHER SERVICE DENVER/BOULDER CO
600 PM MDT MON AUG 03 2015

NOTE: "FAIR" INDICATES FEW OR NO CLOUDS BELOW 12000 FEET WITH NO
SIGNIFICANT WEATHER AND/OR OBSTRUCTIONS TO VISIBILITY.

COZ001>005-013-030-031-040100-
...NORTHWEST COLORADO...

CITY           SKY/WX    TMP DP  RH WIND       PRES   REMARKS
CRAIG          CLOUDY    69  56  62 CALM      30.13R
HAYDEN         CLOUDY    63  52  67 CALM      30.17R THUNDER
MEEKER         LGT RAIN  69  52  54 W21G26    30.13S
MOUNT WERNER   NOT AVBL
STEAMBOAT SPGS   N/A     57  52  81 N10       30.18R
WALDEN         CLOUDY    55  48  76 SW7       30.25S
$$

COZ006>008-011-040100-
...WEST CENTRAL VALLEYS...

CITY           SKY/WX    TMP DP  RH WIND       PRES   REMARKS
GRAND JUNCTION MOSUNNY   86  46  24 W16       30.01F
MONTROSE       PTSUNNY   82  49  31 SW10      30.12F
EAGLE          PTSUNNY   70  50  49 N5        30.20S
RIFLE          PTSUNNY   79  55  43 E14       30.06F
DELTA          NOT AVBL
NUCLA          NOT AVBL
$$

COZ017>023-064>068-040100-
...SOUTHWEST COLORADO...

CITY           SKY/WX    TMP DP  RH WIND       PRES   REMARKS
DURANGO        MOSUNNY   80  42  25 NW17G24   30.17F
CORTEZ         SUNNY     83  47  28 W15       30.13F
PAGOSA SPRINGS MOSUNNY   70  47  44 NE8       30.26F
TELLURIDE      NOT AVBL
WOLF CREEK PAS NOT AVBL
$$

COZ009-010-012-014-032>034-037-058>063-040100-
...CENTRAL COLORADO...

CITY           SKY/WX    TMP DP  RH WIND       PRES   REMARKS
ASPEN          PTSUNNY   61  51  70 S3        30.28F
BUENA VISTA    MOSUNNY   67  40  36 W16G22    30.25S
COPPER MTN     CLOUDY    57  37  47 W31G37    30.55S
BERTHOUD PASS  CLOUDY    46  36  66 W12G26    30.60S
COTTONWOOD PAS MOSUNNY   61  36  39 W13G31    30.39F
GUNNISON       PTSUNNY   72  46  40 N3        30.27F
KREMMLING      CLOUDY    70  37  30 SW15G21   30.22F
LEADVILLE      PTSUNNY   58  41  53 NW21      30.39R
MONARCH PASS   TSTM      45  41  87 W15G39    30.67R
SALIDA         PTSUNNY   74  40  29 W18       30.27S
SUNLIGHT       PTSUNNY   57  54  88 CALM      30.48F THUNDER
WILKERSON PASS NOT AVBL
$$

COZ069>075-040100-
...SAN LUIS VALLEY/SANGRE DE CRISTO MOUNTAINS...

CITY           SKY/WX    TMP DP  RH WIND       PRES   REMARKS
ALAMOSA        MOSUNNY   72  44  36 NW6       30.22F
LA VETA PASS   PTSUNNY   59  43  55 MISG      30.42S
SAGUACHE       PTSUNNY   70  52  52 SW9       30.26S
$$

COZ035-036-038>040-040100-
...NORTHERN COLORADO FRONT RANGE...

CITY           SKY/WX    TMP DP  RH WIND       PRES   REMARKS
DENVER INTL AP CLOUDY    78  49  35 SW6       30.07F
DMNS CITY PARK   N/A     76  53  43 S6G13     30.06F
AURORA         PTSUNNY   76  51  41 S6        30.10F
FRONT RANGE AP PTSUNNY   77  45  31 SE16G25   30.10S
ERIE MUNI ARPT PTSUNNY   82  45  27 S15G21    30.03F
BOULDER MUN AP PTSUNNY   81  46  30 SE9       30.05S
CENTENNIAL     CLOUDY    70  53  54 S14       30.11S
BROOMFIELD     PTSUNNY   75  50  41 SE7       30.09F
FORT COLLINS   CLOUDY    84  43  23 E12       30.01F
LONGMONT       CLOUDY    83  45  26 S10       30.05F
$$

COZ041-046-047-076>085-087-088-040100-
...PIKES PEAK/PALMER DIVIDE AND SOUTHERN FOOTHILLS...

CITY           SKY/WX    TMP DP  RH WIND       PRES   REMARKS
COLO. SPRINGS  LGT RAIN  68  58  70 E15       30.15F
A. F. ACADEMY  PTSUNNY   69  52  54 SE6       30.17F
ELLICOTT       PTSUNNY  N/A N/A N/A E18G24    30.13F
FALCON         PTSUNNY   65  53  64 E10       30.20F
FORT CARSON    NOT AVBL
LIMON          PTSUNNY   67  57  70 E17G26    30.13S
MONUMENT HILL  PTSUNNY   64  50  59 SE10G18   30.23R
TRINIDAD       MOSUNNY   84  47  27 CALM      30.04F
$$

COZ042>045-048>051-090-091-040100-
...NORTHEAST COLORADO...

CITY           SKY/WX    TMP DP  RH WIND       PRES   REMARKS
GREELEY ARPT   CLOUDY    82  48  30 S12       30.03S
AKRON          CLOUDY    82  49  31 S21G30    30.03S
BURLINGTON     CLOUDY    68  58  70 SW17G25   30.06F
WRAY           PTSUNNY   88  51  28 SE12      29.96F
STERLING       CLOUDY    86  54  32 S9        29.97S
HOLYOKE        PTSUNNY   86  55  35 SE7       29.97F
FORT MORGAN    CLOUDY    82  45  27 S25G33    30.02S
$$

COZ086-089-092>099-040100-
...SOUTHEAST COLORADO...

CITY           SKY/WX    TMP DP  RH WIND       PRES   REMARKS
PUEBLO         PTSUNNY   84  52  33 NE15      30.02S
LA JUNTA       MOSUNNY   82  60  47 NE15      29.98F
LAMAR          CLOUDY    76  66  71 NE6       29.95F
SPRINGFIELD      N/A     70  60  70 S3        30.02R
$$



USA.gov is the U.S. government's official web portal to all federal, state and local government web resources and services.